Weather History for Topeka, KS

Change the Weather History Date:

Tuesday, January 31, 2012

  Actual Average Record
Temperature  
Mean Temperature 50 °F 31 °F  
Max Temperature 66 °F 41 °F 73 °F (2009)
Min Temperature 33 °F 20 °F -14 °F (1979)
Degree Days  
Heating Degree Days 15 34  
Month to date heating degree days 877 1090  
Since 1 July heating degree days 2662 3110  
Cooling Degree Days 0 0  
Month to date cooling degree days 0 0  
Year to date cooling degree days 0 0  
Moisture  
Dew Point 41 °F    
Average Humidity 55    
Maximum Humidity 83    
Minimum Humidity 26    
Precipitation  
Precipitation 0.00 in 0.04 in 0.65 in (1988)
Month to date precipitation 0.02 0.86  
Year to date precipitation 0.02 0.86  
Snow  
Snow 0.00 in 0.20 in 3.50 in (1959)
Month to date snowfall 0.1 4.9  
Year to date snowfall 0.1 4.9  
Since 1 July snowfall 0.2 11.4  
Snow Depth 0.00 in    
Sea Level Pressure  
Sea Level Pressure 29.90 in    
Wind  
Wind Speed 8 mph (WSW)    
Max Wind Speed 18 mph    
Max Gust Speed 26 mph    
Visibility 10 miles    
Events      
T = Trace of Precipitation, MM = Missing Value Source: NWS Daily Summary

Daily Weather History Graph

Daily Weather History Graph

Search for Another Location

Airport:

Trip Planner

Search our weather history database for the weather conditions in past years. The results will help you decide how hot, cold, wet, or windy it might be!

Date:

Astronomy

Jan. 31, 2012 Rise Set
Actual Time 7:30 AM CST 5:41 PM CST
Civil Twilight 7:02 AM CST 6:10 PM CST
Nautical Twilight 6:30 AM CST 6:42 PM CST
Astronomical Twilight 5:58 AM CST 7:13 PM CST
Moon 11:33 AM CST (1/31) 1:19 AM CST (1/31)
Length of Visible Light 11h 08m
Length of Day
10h 11m
First Quarter, 55% of the Moon is Illuminated
Jan 31
First Quarter
Feb 7
Full
Feb 14
Last Quarter
Feb 21
New
Feb 29
First Quarter

Hourly Weather History & Observations

Time (CST) Temp. Windchill Dew Point Humidity Pressure Visibility Wind Dir Wind Speed Gust Speed Precip Events Conditions
12:53 AM 52.0 °F - 42.1 °F 69% 29.83 in 10.0 mi SSW 11.5 mph - N/A   Clear
1:53 AM 52.0 °F - 44.1 °F 74% 29.81 in 10.0 mi South 10.4 mph - N/A   Clear
2:53 AM 52.0 °F - 45.0 °F 77% 29.80 in 10.0 mi South 11.5 mph 20.7 mph N/A   Clear
3:53 AM 52.0 °F - 46.9 °F 83% 29.81 in 10.0 mi SW 8.1 mph - N/A   Clear
4:31 AM 51.8 °F - 46.4 °F 82% 29.82 in 10.0 mi SSW 6.9 mph - N/A   Mostly Cloudy
4:53 AM 53.1 °F - 48.0 °F 83% 29.81 in 10.0 mi SSW 5.8 mph - N/A   Overcast
5:53 AM 55.0 °F - 50.0 °F 83% 29.82 in 10.0 mi SW 11.5 mph 23.0 mph N/A   Mostly Cloudy
6:15 AM 55.4 °F - 50.0 °F 82% 29.83 in 10.0 mi SW 13.8 mph 19.6 mph N/A   Partly Cloudy
6:53 AM 55.0 °F - 48.9 °F 80% 29.83 in 10.0 mi SW 9.2 mph - N/A   Scattered Clouds
7:42 AM 53.6 °F - 48.2 °F 82% 29.85 in 10.0 mi SW 8.1 mph - N/A   Mostly Cloudy
7:53 AM 54.0 °F - 48.9 °F 83% 29.85 in 10.0 mi SW 9.2 mph - N/A   Overcast
8:30 AM 55.4 °F - 48.2 °F 77% 29.86 in 10.0 mi SW 10.4 mph - N/A   Scattered Clouds
8:53 AM 55.4 °F - 50.0 °F 82% 29.86 in 10.0 mi SW 9.2 mph - N/A   Clear
9:36 AM 57.2 °F - 48.2 °F 72% 29.87 in 10.0 mi SW 10.4 mph 20.7 mph N/A   Mostly Cloudy
9:53 AM 59.0 °F - 48.9 °F 69% 29.86 in 10.0 mi SW 15.0 mph 26.5 mph N/A   Mostly Cloudy
10:53 AM 57.9 °F - 46.0 °F 65% 29.88 in 10.0 mi West 16.1 mph 20.7 mph N/A   Mostly Cloudy
11:53 AM 61.0 °F - 45.0 °F 56% 29.87 in 10.0 mi WSW 9.2 mph 20.7 mph N/A   Clear
12:53 PM 62.1 °F - 39.9 °F 44% 29.88 in 10.0 mi West 8.1 mph - N/A   Clear
1:53 PM 64.0 °F - 35.1 °F 34% 29.87 in 10.0 mi West 9.2 mph - N/A   Clear
2:53 PM 64.9 °F - 28.9 °F 26% 29.88 in 10.0 mi WNW 13.8 mph 19.6 mph N/A   Clear
3:53 PM 62.1 °F - 30.0 °F 30% 29.91 in 10.0 mi NNW 12.7 mph - N/A   Clear
4:53 PM 61.0 °F - 30.0 °F 31% 29.94 in 10.0 mi NNW 8.1 mph - N/A   Clear
5:53 PM 57.0 °F - 30.9 °F 37% 29.97 in 10.0 mi NW 4.6 mph - N/A   Clear
6:53 PM 48.9 °F - 30.9 °F 50% 30.01 in 10.0 mi Calm Calm - N/A   Clear
7:53 PM 46.0 °F - 32.0 °F 58% 30.03 in 10.0 mi Calm Calm - N/A   Clear
8:53 PM 39.0 °F - 30.9 °F 73% 30.05 in 10.0 mi Calm Calm - N/A   Clear
9:53 PM 37.9 °F - 30.9 °F 76% 30.06 in 10.0 mi Calm Calm - N/A   Clear
10:53 PM 36.0 °F 33.3 °F 30.0 °F 79% 30.08 in 10.0 mi NW 3.5 mph - N/A   Clear
11:53 PM 34.0 °F - 28.9 °F 82% 30.09 in 10.0 mi Calm Calm - N/A   Clear